#timestamp,LO_Frequency,Hit,StdDev 
1459720815.6,286047003.9,N
1459720835.4,286047004.1,N
1459720855.3,286047003.9,N
1459720875.1,286047003.5,N
1459720895.8,286047003.2,N
1459720915.7,286047006.0,N
1459720935.5,286047005.5,N
1459720955.3,286047004.8,N
1459720975.2,286047006.0,N
1459720995.9,286047004.9,N
1459721015.7,286047005.5,N
1459721035.6,286047003.4,N
1459721055.4,286047001.4,N
1459721075.2,286047003.6,N
1459721095.1,286047003.0,N
1459721096.0,286047003.0,N
1459721115.8,286047003.4,N
1459721135.6,286047001.3,N
1459721155.5,286047002.7,N
1459721175.3,286047003.8,N
1459721195.1,286047004.0,N
1459721215.9,286047004.0,Y
1459721235.7,286046997.7,P
1459721255.5,286047000.5,N
1459721275.3,286046998.3,N
1459721295.2,286047000.4,N
1459721315.0,286047000.7,N
1459721315.9,286047000.7,N
1459721335.7,286047001.5,N
1459721355.6,286046998.1,N
1459721375.4,286046999.3,N
1459721395.2,286046999.5,N
1459721415.1,286046999.5,N
1459721416.0,286046999.5,N
1459721435.8,286046999.4,N
1459721455.6,286046998.4,N
1459721475.5,286046998.9,N
1459721495.3,286046999.5,N
1459721515.1,286046997.2,N
1459721535.9,286046997.7,N
1459721555.7,286046996.7,N
1459721575.5,286046999.5,N
1459721595.3,286046999.6,N
1459721615.2,286046997.9,N
1459721635.0,286046998.6,N
1459721635.9,286046998.6,N
1459721655.7,286047002.8,N
1459721675.6,286047000.6,N
1459721695.4,286047000.5,N
1459721715.2,286046999.5,N
1459721735.1,286046999.0,N
1459721736.0,286046999.0,N
1459721755.8,286046997.4,N
1459721775.6,286046997.4,N
1459721795.5,286046997.7,N
1459721815.3,286046998.3,N
1459721835.1,286046997.8,N
1459721855.9,286046998.8,N
1459721875.7,286046998.6,N
1459721895.5,286046998.3,N
1459721915.4,286046999.5,N
1459721935.2,286046994.9,Y
1459721955.0,286047001.0,P
1459721955.9,286047001.0,N
1459721975.8,286046996.8,P
1459721995.6,286046996.8,N
1459722015.4,286046998.7,N
1459722035.3,286046998.7,N
1459722055.1,286047000.1,N
1459722056.0,286047000.1,N
1459722075.8,286046998.2,N
1459722095.6,286046998.9,N
1459722115.5,286046996.7,N
1459722135.3,286046999.1,N
1459722155.1,286047000.8,N
1459722175.9,286046999.0,N
1459722195.7,286046998.9,N
1459722215.5,286047001.2,N
1459722235.4,286046999.3,N
1459722255.2,286046999.3,N
1459722275.0,286046999.0,N
1459722275.9,286046999.0,N
1459722295.8,286046997.3,N
1459722315.6,286046995.1,Y
1459722335.4,286046997.5,P
1459722355.3,286046996.7,P
1459722375.1,286046997.0,P
1459722376.0,286046997.0,Y
1459722395.8,286046996.5,P
1459722415.7,286046995.4,P
1459722435.5,286046997.9,N
1459722455.3,286046999.6,N
1459722475.2,286046998.9,N
1459722495.9,286046998.3,N
1459722515.7,286047001.7,N
1459722535.6,286047004.1,N
1459722555.4,286047001.5,N
1459722575.2,286046999.8,N
1459722595.0,286047002.4,N
1459722595.9,286047002.4,N
1459722615.8,286047002.5,N
1459722635.6,286047003.9,N
1459722655.4,286047002.4,N
1459722675.3,286047000.6,N
1459722695.1,286046998.4,N
1459722715.8,286046998.9,N
1459722735.7,286046997.4,N
1459722755.5,286046995.1,N
1459722775.3,286046996.3,N
1459722795.2,286046993.5,N
1459722815.9,286046993.5,N
1459722835.7,286046994.3,N
1459722855.6,286046996.4,N
1459722875.4,286046993.3,N
1459722895.2,286046994.0,N
1459722915.0,286046996.2,N
1459722915.9,286046996.2,N
1459722935.8,286046996.2,N
1459722955.6,286046995.2,N
1459722975.4,286046993.4,N
1459722995.3,286046995.7,N
1459723015.1,286046995.6,N
1459723035.8,286046996.0,N
1459723055.7,286046996.3,N
1459723075.5,286046995.4,N
1459723095.3,286046995.3,N
1459723115.2,286046995.3,N
1459723135.9,286046997.4,N
1459723155.7,286046995.1,N
1459723175.5,286046996.1,N
1459723195.4,286046994.0,N
1459723215.2,286046994.2,N
1459723235.0,286046994.3,N
1459723236.0,286046994.3,Y
1459723255.8,286046998.0,P
1459723275.6,286046996.9,N
1459723295.4,286046996.9,P
1459723315.3,286046994.9,Y
1459723335.1,286046998.1,P
1459723355.9,286046998.1,P
1459723375.7,286047001.0,N
1459723395.5,286047000.1,N
1459723415.3,286047001.8,N
1459723435.2,286047003.9,N
1459723455.0,286047001.9,N
1459723455.9,286047001.9,N
1459723475.7,286047001.8,N
1459723495.6,286047003.8,N
1459723515.4,286047003.1,N
1459723535.2,286047005.7,N
1459723555.1,286047005.3,N
1459723556.0,286047005.3,N
1459723575.8,286047003.0,N
1459723595.6,286047002.9,N
1459723615.5,286047005.6,N
1459723635.3,286047005.8,N
1459723655.1,286047005.3,N
1459723675.9,286047005.3,N
1459723695.7,286047005.4,N
1459723715.5,286047004.9,N
1459723735.3,286047005.5,N
1459723755.2,286047005.9,N
1459723775.0,286047007.2,N
1459723775.9,286047007.2,N
1459723795.7,286047004.6,N
1459723815.6,286047006.1,N
1459723835.4,286047008.9,Y
1459723855.2,286047006.8,P
1459723875.1,286047004.8,N
1459723876.0,286047004.8,P
1459723895.8,286047002.9,N
1459723915.6,286047003.8,N
1459723935.5,286047002.6,N
1459723955.3,286047002.5,N
1459723975.1,286047003.7,N
1459723995.9,286047003.6,N
1459724015.7,286047004.5,Y
1459724035.5,286047001.3,P
1459724055.4,286047002.9,N
1459724075.2,286047003.7,P
1459724095.0,286047002.3,N
1459724095.9,286047002.3,N
1459724115.8,286047004.0,Y
1459724135.6,286047001.2,P
1459724155.4,286047001.1,N
1459724175.3,286047000.7,N
1459724195.1,286047000.1,N
1459724196.0,286047000.1,N
1459724215.8,286046999.4,N
1459724235.7,286046999.6,N
1459724255.5,286046999.0,N
1459724275.3,286046998.7,N
1459724295.2,286046998.1,N
1459724315.9,286046998.6,N
1459724335.7,286046996.6,N
1459724355.5,286046996.8,N
1459724375.4,286046997.3,N
1459724395.2,286046995.0,Y
